Weather in Iljinsky

Russia / Perm Krai     58°34′21″N   55°40′58″E
temp.,
°C
wind,
m/s
gust,
m/s
humid.,
%
clouds,
%
prec.,
mm/h
press.,
hPa
HPBL,
m
3 march, wed
wed323:00−6sw41195100 1.4 994442
02:00−5sw3696100 1.0 993199
05:00−7wsw369794 1.2 994121
08:00−9wsw379786 0.1 994143
11:00−6w359491 0.2 995253
14:00−3w359294 0.1 996500
17:00−3w259397 0.2 996429
20:00−6w229795 0.3 99629
4 march, thu
thu423:00−7wnw249795 0.5 997121
02:00−10w259689 0.0 995138
05:00−12wsw379792 0.1 996155
08:00−11wsw389594 0.1 995223
11:00−10sw379497 0.1 995273
14:00−6sw3690100 0.1 994551
17:00−6ssw4891100 0.3 993577
20:00−7s2896100 0.2 992310
5 march, fri
fri523:00−8sse2496100 0.4 991104
02:00−10sse119788 0.1 99121
05:00−9wnw129789 0.3 99421
08:00−10nw369694 0.2 996177
11:00−10wnw249381 0.2 998237
14:00−7w238796 0.1 999481
17:00−7w238798 0.2 1001666
20:00−11nw2397100 0.2 100274
6 march, sat
sat623:00−15nw239797 0.3 100482
02:00−18wnw239874 0.0 100560
05:00−19w249975 0.0 100785
08:00−18w379690 0.1 1009232
11:00−16w359393 0.1 1009261
14:00−12w248623 0.0 1009419
17:00−10sw368729 0.0 1007647
20:00−13s399688 0.1 1007255
7 march, sun
sun723:00−14sw259686 0.3 1007115
02:00−17wnw2498100 0.1 100798
05:00−21wnw239995 0.1 100848
08:00−24w229820 0.0 100820
11:00−18sw249138 0.0 1008232
14:00−13sw368776 0.0 1009685
17:00−12sw468688 0.1 1008966
20:00−15s3996100 0.1 1008317